Temp
-8 -8 -8 -8 -8 -8 -8 -8 -8 -8 -8 -8 -8 -8 -8 -8 -8 -8 -8 -8 -8 -8 -8 -9 -9 -9 -9 -9 -9 -9 -9 -9 -9 -9 -9 -10 -10 -10 -9 -9 -9 -9 -9 -9 -9
-8 -8 -8 -8 -8 -8 -8 -8 -8 -8 -8 -8 -8 -8 -8 -8 -8 -8 -8 -8 -8 -8 -8 -8 -9 -9 -9 -9 -9 -10 -10 -10 -10 -10 -10 -10 -10 -10 -10 -10 -10 -10 -10 -9 -9
-9 -9 -9 -9 -8 -8 -8 -8 -9 -9 -9 -9 -9 -8 -8 -8 -8 -8 -8 -8 -9 -9 -8 -9 -9 -9 -9 -9 -9 -9 -9 -10 -10 -10 -10 -10 -10 -10 -10 -10 -10 -9 -9 -9 -9
-9 -9 -9 -9 -9 -9 -9 -9 -9 -9 -9 -9 -9 -9 -9 -9 -9 -8 -8 -8 -9 -9 -9 -9 -9 -9 -9 -10 -10 -9 -9 -9 -10 -10 -10 -10 -10 -10 -10 -10 -10 -10 -9 -9 -9
-9 -9 -9 -9 -9 -9 -9 -9 -9 -9 -9 -9 -9 -9 -9 -9 -9 -9 -9 -9 -9 -9 -9 -9 -9 -9 -9 -10 -10 -10 -10 -9 -10 -9 -10 -10 -10 -10 -10 -10 -10 -9 -9 -9 -9
-9 -9 -9 -9 -9 -9 -9 -9 -9 -9 -9 -9 -9 -9 -9 -9 -9 -9 -9 -9 -9 -9 -9 -9 -9 -9 -9 -9 -10 -10 -10 -10 -10 -10 -9 -9 -10 -10 -10 -10 -10 -9 -9 -9 -9
-10 -10 -10 -10 -10 -10 -10 -10 -10 -10 -10 -9 -9 -9 -9 -10 -9 -10 -10 -10 -10 -9 -9 -10 -10 -10 -9 -9 -10 -10 -10 -9 -10 -10 -9 -9 -10 -10 -10 -10 -10 -10 -10 -9 -9
-10 -10 -10 -10 -10 -10 -10 -10 -10 -10 -10 -10 -10 -10 -10 -10 -10 -10 -10 -10 -10 -10 -10 -10 -10 -10 -10 -10 -10 -10 -10 -10 -10 -10 -9 -9 -10 -10 -10 -10 -10 -10 -10 -10 -10
-10 -10 -11 -11 -11 -11 -11 -11 -11 -11 -11 -11 -10 -10 -10 -10 -10 -10 -10 -10 -10 -10 -10 -10 -10 -10 -10 -10 -10 -10 -10 -10 -10 -10 -9 -9 -9 -10 -10 -10 -10 -10 -10 -10 -10
-10 -10 -11 -11 -11 -11 -11 -11 -11 -11 -11 -11 -11 -11 -11 -11 -11 -11 -11 -11 -11 -10 -10 -10 -10 -10 -10 -10 -10 -10 -10 -10 -10 -10 -9 -9 -9 -10 -10 -10 -11 -11 -11 -10 -10
-10 -11 -11 -11 -11 -11 -11 -11 -11 -11 -11 -11 -11 -11 -11 -11 -11 -11 -11 -11 -11 -11 -11 -10 -10 -10 -10 -10 -10 -10 -10 -10 -10 -10 -9 -9 -9 -10 -11 -11 -11 -11 -11 -11 -11
-11 -10 -11 -11 -11 -11 -11 -11 -11 -11 -11 -11 -11 -11 -11 -11 -11 -11 -11 -11 -11 -11 -11 -11 -10 -11 -11 -11 -11 -11 -10 -10 -10 -10 -9 -9 -9 -10 -10 -11 -11 -11 -11 -11 -11
-11 -11 -11 -11 -11 -11 -11 -11 -11 -11 -11 -11 -11 -12 -11 -11 -11 -11 -11 -11 -11 -11 -11 -11 -11 -11 -11 -11 -11 -11 -11 -11 -10 -10 -10 -9 -8 -9 -10 -11 -11 -11 -11 -11 -11
-12 -12 -12 -11 -11 -11 -11 -11 -11 -11 -11 -11 -11 -11 -12 -12 -12 -12 -12 -12 -12 -12 -12 -11 -11 -11 -11 -11 -12 -11 -11 -11 -11 -10 -10 -10 -8 -8 -9 -10 -11 -11 -11 -11 -11
-12 -12 -12 -12 -12 -12 -12 -12 -11 -11 -11 -11 -11 -11 -11 -11 -12 -12 -12 -12 -12 -12 -12 -11 -11 -12 -11 -12 -12 -12 -12 -11 -11 -11 -10 -10 -10 -9 -9 -10 -11 -11 -12 -11 -11
-12 -12 -12 -12 -12 -12 -12 -12 -12 -12 -11 -11 -11 -11 -11 -11 -11 -12 -12 -12 -12 -12 -12 -12 -12 -12 -12 -12 -12 -12 -12 -12 -12 -12 -10 -10 -10 -8 -10 -11 -11 -12 -12 -12 -12
-12 -12 -12 -12 -12 -12 -12 -12 -12 -11 -11 -10 -11 -11 -11 -12 -12 -12 -12 -12 -12 -12 -12 -12 -12 -12 -12 -13 -13 -13 -13 -13 -12 -12 -11 -11 -10 -8 -10 -11 -11 -11 -12 -12 -12
-13 -13 -13 -13 -13 -13 -13 -13 -11 -10 -11 -11 -12 -12 -11 -12 -12 -12 -12 -12 -12 -13 -13 -13 -12 -13 -12 -13 -13 -13 -13 -13 -14 -13 -11 -11 -9 -9 -10 -11 -11 -12 -12 -12 -11
-13 -13 -13 -14 -14 -14 -14 -12 -10 -11 -11 -11 -12 -11 -11 -12 -13 -13 -12 -12 -13 -13 -14 -14 -13 -13 -13 -13 -14 -13 -13 -14 -14 -14 -13 -11 -9 -10 -10 -11 -11 -12 -12 -11 -11
-14 -14 -13 -14 -14 -15 -14 -12 -11 -12 -12 -12 -13 -13 -12 -13 -13 -13 -12 -12 -13 -14 -14 -15 -16 -14 -14 -13 -14 -14 -15 -15 -15 -14 -14 -11 -10 -9 -11 -11 -12 -13 -12 -11 -11
-14 -14 -13 -14 -15 -14 -13 -12 -12 -12 -13 -14 -14 -14 -13 -13 -13 -13 -13 -13 -14 -14 -15 -16 -17 -15 -14 -13 -14 -15 -15 -15 -15 -15 -15 -14 -8 -10 -11 -12 -13 -13 -12 -12 -12
-14 -14 -13 -14 -15 -15 -13 -13 -13 -13 -13 -13 -13 -13 -13 -14 -14 -14 -13 -13 -13 -14 -15 -15 -16 -15 -15 -15 -15 -15 -14 -15 -15 -15 -15 -15 -10 -11 -12 -13 -14 -13 -13 -12 -13
-14 -14 -14 -14 -14 -13 -14 -14 -14 -13 -14 -14 -14 -14 -14 -14 -14 -14 -14 -13 -14 -14 -15 -15 -17 -17 -14 -13 -14 -15 -15 -15 -15 -14 -14 -16 -10 -12 -13 -14 -14 -13 -13 -13 -13
-14 -14 -14 -14 -13 -14 -13 -13 -13 -13 -14 -14 -14 -15 -15 -15 -15 -14 -14 -14 -15 -15 -15 -16 -17 -14 -14 -13 -15 -15 -15 -14 -14 -14 -14 -13 -12 -10 -14 -14 -15 -14 -13 -14 -14
-15 -14 -14 -14 -13 -13 -14 -14 -14 -14 -14 -14 -14 -14 -15 -15 -15 -14 -15 -15 -15 -15 -15 -15 -15 -14 -14 -13 -16 -15 -14 -12 -13 -13 -15 -12 -14 -11 -14 -16 -14 -14 -14 -14 -14
-16 -16 -15 -15 -15 -15 -14 -14 -13 -14 -14 -14 -14 -15 -15 -15 -14 -15 -16 -14 -14 -14 -15 -15 -15 -15 -14 -13 -16 -17 -12 -14 -12 -13 -14 -14 -13 -13 -17 -17 -15 -16 -15 -15 -15
-16 -17 -17 -16 -16 -16 -15 -15 -14 -15 -15 -14 -15 -15 -15 -14 -15 -15 -15 -15 -15 -15 -15 -15 -15 -15 -15 -15 -17 -17 -11 -13 -13 -14 -14 -14 -12 -14 -16 -17 -16 -16 -17 -17 -16
Height
5889 5889 5890 5890 5891 5891 5890 5889 5889 5890 5890 5889 5888 5887 5885 5884 5882 5880 5878 5877 5875 5872 5870 5869 5867 5865 5862 5859 5857 5855 5854 5853 5851 5850 5849 5847 5845 5843 5841 5840 5838 5837 5836 5835 5833
5886 5886 5887 5887 5888 5888 5888 5887 5887 5887 5887 5887 5886 5885 5884 5883 5881 5880 5877 5875 5874 5871 5869 5866 5865 5864 5861 5858 5855 5853 5851 5850 5848 5847 5846 5845 5843 5840 5838 5835 5833 5832 5831 5829 5828
5882 5882 5883 5884 5884 5884 5884 5884 5884 5884 5884 5884 5883 5882 5882 5881 5880 5878 5875 5873 5872 5870 5868 5865 5863 5861 5859 5857 5854 5851 5849 5847 5845 5843 5842 5842 5840 5838 5835 5832 5829 5828 5826 5825 5824
5877 5878 5878 5879 5879 5880 5880 5880 5879 5880 5881 5880 5880 5879 5878 5878 5878 5876 5873 5871 5869 5868 5866 5864 5861 5858 5856 5854 5852 5849 5846 5844 5842 5840 5839 5837 5836 5834 5832 5830 5826 5823 5821 5820 5818
5872 5873 5873 5874 5875 5875 5875 5876 5876 5875 5875 5876 5876 5875 5875 5874 5874 5872 5871 5868 5866 5865 5863 5861 5859 5857 5853 5850 5848 5845 5843 5841 5839 5837 5835 5833 5830 5828 5827 5824 5822 5819 5816 5813 5811
5866 5867 5868 5868 5869 5869 5869 5870 5870 5871 5871 5870 5870 5870 5870 5871 5869 5868 5867 5865 5863 5861 5860 5858 5856 5854 5851 5849 5846 5843 5839 5836 5835 5833 5832 5831 5826 5823 5822 5820 5816 5812 5809 5807 5804
5861 5862 5862 5862 5863 5863 5863 5863 5864 5864 5864 5864 5864 5865 5865 5865 5864 5863 5862 5860 5859 5857 5856 5854 5852 5850 5847 5845 5843 5841 5838 5833 5830 5827 5824 5826 5823 5819 5818 5815 5811 5807 5803 5799 5796
5854 5855 5856 5857 5857 5858 5857 5857 5858 5858 5858 5858 5857 5857 5858 5858 5857 5857 5856 5855 5854 5852 5850 5849 5846 5844 5842 5840 5838 5835 5834 5831 5826 5822 5819 5818 5821 5812 5810 5808 5804 5800 5796 5793 5789
5848 5848 5849 5850 5850 5851 5851 5851 5851 5851 5851 5851 5851 5850 5851 5851 5850 5850 5850 5848 5847 5846 5845 5843 5840 5838 5836 5833 5832 5829 5825 5824 5821 5815 5812 5809 5814 5808 5805 5803 5798 5793 5790 5787 5783
5840 5842 5842 5842 5842 5843 5843 5843 5842 5843 5844 5844 5843 5844 5845 5844 5843 5843 5842 5841 5840 5839 5838 5837 5834 5831 5829 5825 5824 5821 5818 5816 5813 5807 5804 5802 5802 5803 5796 5794 5790 5785 5781 5778 5774
5831 5833 5834 5835 5835 5835 5836 5836 5836 5835 5836 5836 5835 5836 5836 5837 5838 5838 5835 5834 5834 5832 5831 5829 5828 5825 5822 5818 5815 5812 5809 5807 5806 5800 5791 5794 5790 5795 5790 5786 5782 5777 5773 5769 5764
5821 5823 5825 5826 5826 5826 5827 5827 5826 5825 5826 5825 5826 5826 5827 5830 5830 5831 5830 5826 5826 5824 5822 5821 5820 5817 5814 5811 5807 5803 5800 5800 5795 5791 5785 5782 5780 5782 5784 5780 5775 5770 5766 5760 5755
5811 5813 5814 5814 5815 5817 5816 5816 5816 5814 5809 5816 5815 5816 5819 5820 5820 5823 5821 5818 5816 5815 5813 5810 5812 5810 5806 5803 5799 5795 5792 5788 5784 5780 5778 5771 5764 5770 5779 5771 5766 5763 5759 5753 5746
5801 5803 5805 5804 5805 5807 5807 5806 5805 5806 5793 5799 5806 5807 5811 5811 5809 5812 5810 5809 5807 5806 5804 5800 5803 5799 5796 5795 5790 5784 5785 5779 5775 5770 5764 5765 5744 5753 5759 5761 5755 5752 5749 5742 5735
5790 5791 5794 5793 5794 5796 5797 5796 5794 5796 5774 5786 5794 5800 5802 5802 5802 5802 5800 5798 5796 5796 5795 5795 5791 5789 5787 5785 5781 5775 5772 5769 5765 5761 5753 5756 5746 5735 5743 5744 5743 5739 5734 5727 5720
5779 5780 5782 5783 5782 5785 5784 5783 5784 5780 5758 5774 5781 5787 5790 5791 5791 5789 5788 5786 5785 5783 5782 5784 5780 5778 5777 5774 5770 5766 5760 5756 5753 5750 5741 5747 5737 5724 5734 5731 5730 5726 5722 5714 5708
5765 5767 5769 5771 5772 5771 5771 5773 5771 5753 5761 5767 5772 5775 5777 5778 5778 5778 5776 5774 5773 5772 5771 5771 5769 5766 5764 5761 5757 5753 5749 5744 5739 5736 5734 5732 5720 5721 5723 5720 5718 5714 5707 5699 5693
5752 5754 5755 5757 5757 5757 5757 5757 5746 5746 5754 5757 5761 5763 5762 5765 5765 5764 5762 5760 5761 5760 5758 5755 5753 5755 5753 5749 5744 5740 5739 5735 5726 5724 5723 5716 5706 5708 5705 5710 5707 5702 5692 5685 5678
5737 5739 5740 5741 5740 5740 5741 5738 5732 5740 5743 5746 5748 5748 5750 5752 5752 5750 5748 5747 5749 5748 5745 5742 5740 5740 5739 5736 5732 5728 5726 5723 5714 5716 5712 5706 5700 5692 5698 5700 5694 5689 5679 5673 5667
5721 5721 5726 5727 5725 5721 5721 5720 5720 5729 5729 5734 5734 5735 5734 5737 5737 5736 5735 5735 5734 5734 5731 5727 5723 5726 5725 5721 5717 5716 5714 5709 5704 5698 5691 5692 5683 5674 5685 5685 5678 5671 5664 5658 5654
5703 5703 5709 5710 5706 5705 5705 5706 5711 5716 5718 5719 5717 5717 5720 5720 5720 5720 5719 5719 5720 5719 5714 5709 5708 5712 5708 5706 5705 5700 5694 5695 5691 5682 5677 5674 5665 5671 5673 5668 5664 5658 5652 5646 5642
5685 5684 5690 5688 5687 5687 5689 5694 5699 5701 5704 5701 5700 5703 5704 5705 5704 5702 5701 5707 5708 5704 5698 5695 5689 5693 5695 5687 5684 5682 5684 5683 5673 5670 5661 5648 5651 5666 5655 5649 5648 5645 5637 5632 5630
5659 5664 5665 5663 5664 5670 5676 5679 5681 5683 5686 5685 5684 5685 5689 5687 5683 5685 5690 5693 5689 5686 5683 5679 5669 5670 5669 5669 5664 5669 5670 5666 5660 5652 5635 5633 5637 5650 5640 5634 5635 5627 5621 5618 5614
5641 5638 5641 5638 5649 5651 5655 5660 5663 5667 5667 5663 5663 5666 5668 5667 5672 5669 5671 5670 5670 5668 5666 5655 5647 5645 5647 5654 5647 5645 5650 5650 5645 5620 5624 5616 5613 5631 5628 5621 5617 5606 5605 5601 5597
5620 5615 5620 5618 5628 5630 5632 5641 5646 5644 5645 5645 5644 5649 5651 5647 5650 5648 5652 5651 5648 5645 5643 5635 5625 5631 5628 5635 5625 5626 5632 5633 5623 5617 5600 5608 5599 5603 5610 5602 5596 5590 5586 5585 5583
5602 5598 5599 5602 5606 5605 5608 5618 5624 5628 5626 5628 5627 5633 5631 5624 5634 5631 5630 5624 5622 5622 5620 5615 5609 5612 5604 5614 5604 5599 5618 5612 5612 5606 5594 5593 5585 5600 5588 5581 5578 5574 5572 5571 5566
5581 5578 5576 5576 5581 5579 5589 5598 5603 5608 5602 5606 5609 5608 5607 5619 5611 5604 5601 5600 5602 5600 5602 5598 5594 5592 5581 5592 5580 5579 5601 5601 5597 5585 5585 5575 5578 5577 5570 5567 5561 5561 5558 5554 5553
Wind_Speed
17 16 16 16 15 13 12 9 7 5 5 5 7 10 12 14 15 14 10 11 11 12 11 9 11 10 10 10 11 13 12 13 15 17 19 20 21 23 23 23 24 24 25 25 25
22 20 20 19 18 17 16 14 12 10 9 8 6 7 8 11 12 12 13 11 11 12 13 14 13 12 12 11 11 12 13 15 15 15 16 17 19 21 23 24 26 27 28 28 27
26 25 23 23 22 21 20 19 18 15 13 12 10 9 9 8 10 12 13 13 11 12 15 16 17 16 13 13 12 13 14 16 18 19 19 20 21 20 21 22 24 26 26 26 26
28 28 27 26 26 25 24 23 22 20 18 17 16 14 13 12 10 11 13 14 14 13 15 16 17 18 20 16 14 15 15 16 17 18 20 21 22 22 22 23 24 27 28 27 29
31 31 30 30 30 30 29 27 26 25 23 22 21 20 19 17 16 16 15 15 16 16 16 17 17 18 19 19 19 19 18 18 19 20 23 24 25 26 24 26 25 26 26 27 30
34 34 34 33 33 33 33 31 30 29 29 27 25 24 24 24 21 20 20 18 19 18 18 19 19 19 18 19 21 21 23 25 26 26 25 23 28 28 27 26 28 30 30 31 32
36 36 36 36 37 37 36 36 34 34 33 32 30 29 28 29 28 26 25 23 23 23 21 22 22 22 22 21 22 23 24 29 32 33 29 23 25 29 27 28 30 30 31 33 35
38 37 38 38 39 40 39 39 38 36 37 36 35 33 31 32 32 31 29 28 27 27 26 25 26 26 25 25 26 29 28 29 33 33 30 28 21 33 31 30 32 34 34 35 37
41 39 37 38 40 42 43 42 42 41 40 40 39 38 35 34 34 33 32 32 30 31 28 29 29 30 29 30 30 31 33 33 34 38 37 35 25 32 30 30 34 33 34 35 38
41 40 39 39 39 41 44 45 46 45 44 45 45 43 38 36 36 35 34 34 33 33 32 32 32 33 33 34 35 36 37 36 37 42 41 39 34 31 35 35 38 38 41 39 39
42 42 42 42 41 40 42 44 48 51 49 49 49 49 46 42 38 36 36 36 34 34 34 34 35 35 37 37 40 42 42 41 39 43 48 43 43 35 36 37 41 42 42 40 43
45 45 45 46 45 44 42 43 46 49 51 53 53 52 50 47 45 40 38 40 37 37 38 39 37 39 41 41 43 45 46 44 46 46 50 49 47 42 35 37 37 43 41 44 43
48 46 46 47 48 47 46 45 46 47 53 49 51 52 52 52 51 46 44 44 43 42 41 43 41 43 44 44 46 48 49 49 51 51 50 53 53 47 34 38 41 36 40 41 43
50 49 46 47 48 47 48 48 48 48 58 54 48 49 47 48 50 46 47 48 47 45 46 49 46 46 47 47 48 52 48 51 53 55 56 52 59 50 44 40 44 42 44 44 45
54 53 50 50 51 47 48 51 52 51 68 61 53 47 44 44 44 43 44 48 50 50 51 49 49 48 49 46 46 51 51 53 54 54 57 52 56 57 48 47 46 49 49 52 55
56 57 56 54 54 53 51 53 55 59 72 62 57 52 50 48 46 46 47 48 48 49 51 48 49 49 47 45 48 50 53 54 55 54 60 52 57 55 51 49 52 51 52 53 54
55 57 59 58 57 57 57 58 61 71 66 62 57 53 51 50 49 50 51 53 51 51 51 48 48 49 48 48 49 51 53 54 58 57 58 55 61 53 53 53 54 54 56 60 60
55 54 58 58 61 61 61 61 72 73 67 63 59 57 57 54 53 52 53 55 53 52 51 52 55 48 50 47 51 53 52 52 56 59 60 61 63 61 57 54 57 56 63 63 61
59 58 58 57 60 63 64 71 76 71 69 65 62 61 60 57 55 57 58 60 55 52 50 49 54 53 54 57 59 59 57 55 59 59 60 61 61 65 61 59 57 59 62 61 62
67 66 65 62 63 66 66 74 77 72 71 66 66 66 65 63 62 60 60 63 59 53 51 52 55 55 55 58 59 57 57 59 61 63 67 63 66 69 64 58 59 59 63 62 60
74 74 71 69 70 70 76 76 73 72 68 65 67 67 67 66 65 65 65 63 60 59 58 58 56 57 60 60 59 58 62 61 63 68 69 71 63 63 61 59 60 61 64 63 55
81 83 81 79 77 77 79 78 75 73 70 73 74 72 71 69 68 68 69 66 61 61 63 63 63 62 63 67 69 68 65 64 66 68 72 78 67 56 61 61 62 60 65 63 52
67 76 77 77 80 78 74 76 76 76 74 73 74 76 70 69 71 70 65 63 64 65 63 61 65 67 71 72 75 69 68 69 69 74 81 74 68 58 61 63 62 66 63 54 51
70 77 78 78 80 79 79 75 70 70 76 76 76 74 78 73 70 72 72 69 67 69 68 67 68 75 77 76 75 76 74 72 72 82 79 75 76 60 60 62 63 65 54 51 55
75 80 73 79 75 76 78 77 76 75 76 77 78 72 73 77 73 78 75 70 71 71 72 73 76 78 83 77 76 76 70 66 68 70 81 71 73 68 60 62 58 54 54 56 53
84 88 79 73 74 82 85 77 77 75 78 77 78 71 74 81 73 75 73 73 73 75 76 74 77 77 83 78 77 77 70 70 68 69 73 69 69 56 56 54 53 53 55 54 47
86 90 97 91 75 78 80 80 72 72 74 69 69 74 76 71 72 74 75 74 73 70 68 70 72 75 82 75 77 77 74 70 65 70 66 66 63 54 57 50 55 53 52 48 48
Wind_Direction
237 241 239 244 248 249 245 244 247 249 273 308 342 351 4 13 17 20 17 16 16 16 18 7 2 357 345 326 310 303 310 315 312 311 305 299 294 292 289 285 287 283 280 281 281
237 238 237 242 246 248 251 251 250 249 250 266 291 317 340 351 0 9 10 1 351 357 1 0 353 348 356 349 348 331 327 326 328 331 331 328 320 311 302 296 288 286 284 285 289
239 239 241 244 245 246 249 251 255 254 252 258 265 278 297 316 332 347 353 355 346 343 344 348 346 340 344 350 349 344 335 330 329 331 331 329 325 319 311 301 296 294 295 294 294
242 243 244 246 249 250 248 248 249 255 259 261 262 268 275 285 302 316 330 338 338 333 332 331 339 337 333 336 337 332 333 333 332 330 329 330 327 318 313 308 301 296 292 293 292
245 244 244 247 250 252 253 251 251 252 254 258 262 267 272 277 285 295 307 315 319 323 319 320 324 331 332 328 323 322 322 320 319 320 323 328 325 321 320 311 307 302 295 287 283
248 247 246 246 248 250 253 254 254 253 256 257 258 261 266 271 273 280 289 295 302 306 309 311 311 317 323 324 321 315 312 313 311 309 308 317 318 318 316 314 307 302 299 295 290
250 249 247 245 246 248 251 254 254 256 256 257 260 263 266 268 273 275 280 284 291 294 300 302 303 306 311 313 313 313 310 311 311 311 309 313 314 314 317 319 311 305 296 291 289
251 251 251 249 247 248 251 253 255 257 258 260 261 262 263 268 271 273 276 280 285 287 292 296 298 301 306 310 310 310 308 306 306 306 303 306 318 311 317 319 314 309 301 297 291
255 253 253 252 251 251 253 256 257 258 259 261 263 264 265 266 270 273 276 278 281 283 286 291 294 297 302 306 309 308 307 307 306 304 304 302 307 307 310 317 319 314 307 302 298
256 257 256 254 252 252 255 256 259 260 262 263 263 266 269 272 272 274 275 279 281 281 285 287 292 294 297 303 305 305 306 306 305 300 301 304 304 308 308 312 316 317 317 309 302
256 257 257 258 259 257 256 258 261 262 264 265 268 267 269 273 276 279 279 281 284 283 285 288 291 293 295 299 301 302 303 306 302 299 300 303 304 307 306 311 313 310 314 309 304
255 256 258 259 258 258 258 259 260 263 263 265 267 269 271 274 275 277 282 281 284 286 289 290 291 290 294 294 297 296 299 304 303 301 299 300 302 301 305 309 308 308 308 306 299
255 256 257 257 257 257 258 257 260 263 266 261 265 267 271 273 275 278 278 280 283 285 285 285 289 290 290 292 294 293 298 299 302 302 300 299 300 301 300 307 306 311 307 304 304
255 257 259 260 259 260 260 261 261 263 267 265 262 266 270 274 276 278 275 276 277 280 282 283 290 290 291 293 291 292 295 297 299 300 301 299 302 302 307 309 309 311 312 306 305
257 256 258 260 261 261 263 264 264 266 268 272 270 268 269 271 274 273 275 275 276 279 282 285 287 287 289 291 290 293 294 295 296 297 297 301 297 301 308 312 314 312 315 311 306
259 259 258 259 262 265 264 265 266 265 264 271 275 275 275 276 277 278 277 276 278 279 280 284 286 287 290 290 290 293 294 293 296 295 294 301 296 295 306 307 313 313 313 305 304
257 258 258 260 262 262 264 265 265 261 268 272 275 279 280 279 278 279 280 280 281 284 285 286 287 289 291 292 292 293 292 294 293 293 296 297 293 301 302 302 307 313 312 306 302
258 258 259 259 260 261 261 260 260 264 267 271 275 278 279 280 282 282 282 282 285 287 289 291 291 290 292 291 291 290 292 290 291 293 296 294 299 303 299 304 306 307 306 305 302
258 259 258 259 260 259 259 259 263 267 269 271 274 275 277 278 279 281 282 282 285 287 286 288 287 289 286 284 285 287 289 289 288 288 289 295 302 296 298 303 306 305 301 301 301
259 259 260 262 260 262 258 260 263 265 271 274 275 276 278 279 278 278 279 282 282 284 284 281 278 279 282 285 285 286 287 285 287 288 287 298 298 297 304 306 308 306 304 300 303
262 262 260 260 262 260 263 265 265 266 270 274 276 275 277 279 280 281 281 279 284 285 285 285 283 288 290 290 290 282 284 289 287 287 291 293 293 301 309 306 304 304 303 302 301
263 265 265 264 261 262 264 266 270 271 272 272 274 275 277 278 278 278 279 283 283 283 283 283 282 283 283 282 283 282 286 289 286 288 287 283 296 312 305 301 304 301 299 299 299
263 271 267 263 263 265 269 268 266 268 270 273 275 274 273 274 275 276 279 280 281 281 281 282 278 278 278 281 280 281 283 284 287 286 285 284 302 308 303 300 302 297 297 297 295
263 261 264 267 268 266 267 266 267 270 268 269 270 272 270 271 276 277 279 279 280 278 278 276 275 280 284 288 282 281 283 284 286 284 291 295 301 305 302 300 298 294 294 293 298
261 262 261 262 263 268 267 264 264 265 261 263 269 272 271 272 275 274 274 277 275 275 275 275 277 283 285 289 279 279 283 286 280 285 286 301 297 305 301 296 291 290 289 294 300
256 256 260 259 259 264 262 262 263 257 264 267 264 266 269 271 271 274 276 273 269 271 273 273 277 279 281 284 278 275 288 280 283 287 288 293 294 308 297 293 289 285 292 299 293
255 261 261 257 262 258 264 263 255 256 254 263 264 265 270 275 274 269 266 272 274 270 271 272 274 277 278 279 273 272 291 289 286 282 290 288 297 285 287 285 280 287 294 288 294